Probability
0 0 0 3 3 3 3 3 3 3 3 3 6 0 0 0 0 0 0 0 0 0 0 0 0 0 0 0 0 0 0 0 0 0 0 0 0 0 0 0 0 0 0
0 0 0 0 3 3 3 3 3 3 3 3 3 3 3 0 0 0 0 0 0 0 0 0 0 0 0 0 0 0 0 0 0 0 0 0 0 0 0 0 0 0 0
0 0 0 0 0 3 3 3 3 3 3 3 3 3 3 0 0 0 0 0 0 0 0 0 0 0 0 0 0 0 0 0 0 0 0 0 0 0 0 0 0 0 0
0 0 0 0 0 3 3 3 3 3 3 3 3 3 0 0 0 0 0 0 0 0 0 3 3 0 0 0 0 0 0 0 0 0 0 0 0 0 0 0 0 0 0
0 0 0 0 0 3 3 3 3 3 3 3 3 3 0 0 0 0 0 0 0 0 0 0 0 0 0 0 0 0 0 0 0 0 0 0 0 0 0 0 0 0 0
0 0 0 0 0 3 3 3 3 3 3 3 3 3 3 0 0 0 0 0 0 0 0 0 0 0 0 0 0 0 0 0 0 0 0 0 0 0 0 0 0 0 0
0 0 0 0 0 0 3 3 3 3 3 3 3 3 0 0 0 0 0 0 0 0 0 0 0 0 0 0 0 0 0 0 0 0 0 0 0 0 0 0 0 0 0
0 0 0 0 0 0 0 3 3 3 3 3 3 3 0 0 0 0 0 0 0 0 0 0 0 0 0 0 0 0 0 0 0 0 0 0 0 0 0 0 0 0 0
0 0 0 0 0 0 0 0 0 0 0 0 0 0 0 0 0 0 0 0 0 0 0 0 0 0 0 0 0 0 0 0 0 0 0 0 0 0 0 0 0 0 0
0 0 0 0 0 0 0 0 0 0 0 0 0 0 0 0 0 0 0 0 0 0 0 0 0 0 0 0 0 0 0 0 0 0 0 0 0 0 0 0 0 0 0
0 0 0 0 0 0 0 0 0 0 0 0 0 0 0 0 0 0 0 0 0 0 0 0 0 0 0 0 0 0 0 0 0 0 0 0 0 0 0 0 0 0 0
0 0 0 0 0 0 0 0 0 0 0 0 0 0 0 0 0 0 0 0 0 0 0 0 0 0 0 0 0 0 0 0 0 0 0 0 0 0 0 0 0 0 0
0 0 0 0 0 0 0 0 0 0 0 0 0 0 0 0 0 0 0 0 0 0 0 0 0 0 0 0 0 0 0 0 0 0 0 0 0 0 0 0 0 0 0
0 0 0 0 0 0 0 0 0 0 0 0 0 0 0 0 0 0 0 0 0 0 0 0 0 0 0 0 0 0 0 0 0 0 0 0 0 0 0 0 0 0 0
0 0 0 0 0 0 0 0 0 0 0 0 0 0 0 0 0 0 0 0 0 0 0 0 0 0 0 0 0 0 0 0 0 0 0 0 0 0 0 0 0 0 0
0 0 0 0 0 0 0 0 0 0 0 0 0 0 0 0 0 0 0 0 0 0 0 0 0 0 0 0 0 0 0 0 0 0 0 0 0 0 0 0 0 0 0
0 0 0 0 0 0 0 0 0 0 0 0 0 0 0 0 0 0 0 0 0 0 0 0 0 0 0 0 0 0 0 0 0 0 0 0 0 0 0 0 0 0 0
0 0 0 0 0 0 0 0 0 0 0 0 0 0 0 0 0 0 0 0 0 0 0 0 0 0 0 0 0 0 0 0 0 0 0 0 0 0 0 0 0 0 0
0 0 0 0 0 0 0 0 0 0 0 0 0 0 0 0 0 0 0 0 0 0 0 0 0 0 0 0 0 0 0 0 0 0 0 0 0 0 0 0 0 0 0
0 0 0 0 0 0 0 0 0 0 0 0 0 0 0 0 0 0 0 0 0 0 0 0 0 0 0 0 0 0 0 0 0 0 0 0 0 0 0 0 0 0 0
0 0 0 0 0 0 0 0 0 0 0 0 0 0 0 0 0 0 0 0 0 0 0 0 0 0 0 0 0 0 0 0 0 0 0 0 0 0 0 0 0 0 0
0 0 0 0 0 0 0 0 0 0 0 0 0 0 0 0 0 0 0 0 0 0 0 0 0 0 0 0 0 0 0 0 0 0 0 0 0 0 0 0 0 0 0
0 0 0 0 0 0 0 0 0 0 0 0 0 0 0 0 0 0 0 0 0 0 0 0 0 0 0 0 0 0 0 0 0 0 0 0 0 0 0 0 0 0 0
0 0 0 0 0 0 0 0 0 0 0 0 0 0 0 0 0 0 0 0 0 0 0 0 0 0 0 0 0 0 0 0 0 0 0 0 0 0 0 0 0 0 0
0 0 0 0 0 0 0 0 0 0 0 0 0 0 0 0 0 0 0 0 0 0 0 0 0 0 0 0 0 0 0 0 0 0 0 0 0 0 0 0 0 0 0
0 0 0 0 0 0 0 0 0 0 0 0 0 0 0 0 0 0 0 0 0 0 0 0 0 0 0 0 0 0 0 0 0 0 0 0 0 0 0 0 0 0 0
Height
5708 5709 5710 5711 5712 5714 5715 5717 5720 5722 5724 5726 5728 5730 5732 5734 5736 5738 5740 5742 5744 5746 5748 5750 5752 5755 5757 5759 5761 5763 5765 5766 5768 5770 5771 5773 5774 5776 5777 5778 5779 5781 5782
5697 5698 5700 5701 5702 5704 5705 5707 5709 5712 5714 5716 5719 5721 5723 5724 5726 5728 5731 5733 5735 5737 5739 5742 5744 5746 5748 5751 5753 5755 5756 5758 5760 5762 5763 5765 5767 5768 5769 5770 5771 5773 5774
5686 5688 5689 5690 5691 5693 5695 5697 5699 5701 5704 5706 5709 5711 5713 5715 5717 5720 5722 5724 5726 5728 5730 5733 5735 5737 5740 5742 5744 5746 5748 5750 5752 5753 5755 5757 5758 5760 5761 5762 5763 5764 5765
5675 5676 5678 5679 5680 5682 5684 5686 5688 5691 5693 5696 5699 5702 5704 5707 5709 5711 5713 5715 5717 5719 5721 5723 5726 5728 5731 5733 5735 5737 5739 5741 5743 5744 5746 5748 5749 5751 5752 5753 5754 5755 5756
5664 5665 5667 5669 5670 5672 5673 5675 5677 5680 5683 5686 5689 5692 5694 5697 5699 5702 5704 5706 5708 5710 5712 5714 5717 5719 5721 5724 5726 5728 5730 5732 5733 5735 5736 5738 5739 5741 5742 5744 5745 5745 5746
5653 5654 5656 5658 5660 5661 5663 5665 5667 5670 5673 5676 5679 5681 5684 5687 5689 5692 5694 5696 5698 5701 5703 5705 5707 5710 5712 5714 5716 5718 5721 5722 5724 5725 5727 5728 5730 5731 5732 5734 5735 5735 5736
5642 5644 5645 5647 5649 5651 5653 5655 5658 5660 5663 5665 5668 5671 5674 5677 5679 5682 5684 5687 5689 5691 5693 5696 5698 5700 5703 5705 5707 5709 5711 5712 5714 5715 5717 5718 5719 5720 5722 5723 5724 5725 5725
5631 5633 5634 5636 5638 5640 5642 5645 5647 5650 5652 5655 5658 5661 5664 5666 5669 5672 5674 5677 5679 5681 5683 5686 5688 5691 5693 5695 5697 5699 5700 5702 5703 5704 5705 5707 5708 5709 5710 5712 5712 5713 5714
5620 5621 5623 5625 5627 5629 5631 5634 5636 5639 5642 5644 5647 5650 5653 5656 5659 5661 5664 5666 5668 5671 5673 5675 5678 5681 5683 5685 5686 5688 5690 5691 5692 5693 5694 5695 5696 5697 5699 5700 5701 5702 5703
5608 5609 5611 5613 5615 5617 5620 5622 5625 5628 5631 5633 5636 5639 5642 5645 5648 5650 5653 5656 5658 5660 5662 5665 5667 5670 5672 5674 5676 5677 5679 5680 5681 5682 5682 5683 5685 5685 5687 5688 5689 5689 5690
5596 5598 5600 5601 5604 5606 5608 5611 5613 5616 5619 5622 5625 5628 5631 5633 5636 5639 5642 5645 5647 5650 5652 5654 5657 5659 5661 5663 5665 5666 5667 5669 5669 5670 5671 5672 5673 5673 5675 5676 5677 5677 5678
5585 5586 5588 5590 5592 5594 5596 5599 5602 5605 5608 5610 5613 5616 5619 5622 5625 5628 5631 5634 5636 5638 5641 5643 5646 5648 5649 5651 5653 5654 5656 5657 5658 5659 5659 5660 5661 5662 5663 5664 5665 5666 5667
5573 5574 5576 5578 5580 5582 5585 5587 5590 5593 5595 5598 5601 5604 5608 5611 5614 5617 5619 5622 5625 5627 5630 5632 5634 5636 5638 5639 5641 5642 5644 5645 5646 5647 5648 5649 5649 5651 5652 5652 5653 5654 5655
5561 5563 5564 5566 5568 5571 5573 5576 5578 5581 5583 5586 5589 5592 5596 5599 5602 5605 5608 5610 5613 5616 5618 5620 5622 5624 5626 5628 5629 5631 5632 5633 5634 5635 5636 5637 5639 5640 5641 5641 5642 5643 5644
5550 5552 5553 5555 5557 5559 5562 5564 5567 5569 5572 5574 5577 5580 5584 5587 5590 5593 5595 5598 5601 5604 5606 5608 5610 5612 5614 5616 5617 5619 5620 5622 5623 5624 5625 5626 5627 5628 5629 5630 5631 5632 5632
5540 5541 5542 5544 5546 5548 5551 5553 5555 5558 5560 5563 5566 5569 5572 5575 5578 5581 5583 5586 5588 5591 5593 5596 5598 5600 5602 5604 5605 5606 5608 5610 5611 5613 5614 5615 5616 5617 5618 5619 5619 5620 5621
5529 5530 5532 5533 5535 5537 5540 5542 5545 5547 5549 5551 5554 5557 5560 5563 5566 5568 5571 5573 5576 5578 5581 5583 5585 5587 5589 5591 5592 5594 5595 5597 5599 5601 5602 5603 5604 5605 5606 5607 5607 5608 5608
5518 5519 5521 5523 5525 5527 5529 5532 5534 5536 5538 5541 5543 5546 5549 5551 5554 5556 5559 5561 5564 5566 5568 5570 5572 5574 5576 5578 5579 5581 5583 5585 5587 5589 5590 5591 5592 5593 5594 5595 5595 5596 5596
5507 5508 5510 5512 5514 5516 5518 5521 5523 5526 5528 5531 5533 5535 5538 5540 5543 5545 5547 5549 5552 5554 5555 5557 5559 5561 5563 5565 5566 5568 5570 5572 5574 5576 5578 5579 5580 5581 5581 5582 5583 5583 5584
5496 5497 5499 5501 5503 5505 5507 5510 5512 5515 5518 5520 5523 5525 5527 5530 5532 5534 5536 5538 5540 5541 5543 5545 5546 5548 5550 5552 5553 5555 5557 5560 5562 5563 5564 5566 5567 5567 5568 5569 5570 5570 5571
5485 5486 5488 5489 5491 5493 5496 5499 5502 5504 5507 5510 5512 5515 5517 5519 5521 5523 5525 5526 5528 5530 5531 5533 5534 5536 5537 5539 5541 5543 5545 5546 5548 5550 5552 5553 5554 5555 5556 5556 5557 5558 5558
5476 5476 5477 5479 5480 5482 5484 5487 5490 5493 5496 5499 5502 5504 5506 5508 5510 5512 5514 5515 5517 5518 5520 5521 5522 5524 5525 5527 5529 5531 5532 5534 5536 5538 5539 5540 5542 5543 5544 5544 5545 5546 5546
5467 5467 5467 5468 5469 5471 5473 5476 5479 5481 5484 5487 5490 5493 5495 5497 5499 5501 5503 5504 5506 5508 5509 5510 5512 5513 5514 5516 5518 5519 5521 5522 5524 5526 5527 5529 5530 5531 5532 5533 5534 5535 5535
5457 5457 5457 5458 5459 5461 5462 5465 5468 5470 5473 5476 5478 5481 5484 5486 5488 5490 5492 5494 5495 5497 5498 5500 5501 5503 5504 5505 5507 5508 5510 5512 5513 5515 5517 5518 5519 5520 5522 5522 5523 5524 5524
5448 5448 5448 5449 5450 5451 5452 5455 5457 5459 5462 5464 5467 5470 5472 5474 5477 5479 5481 5483 5485 5486 5488 5490 5491 5493 5494 5495 5497 5498 5500 5501 5503 5504 5506 5508 5509 5510 5511 5512 5513 5513 5514
5439 5439 5439 5439 5440 5441 5443 5445 5447 5449 5452 5454 5457 5459 5461 5464 5466 5468 5470 5472 5475 5476 5478 5480 5482 5483 5484 5486 5487 5489 5490 5491 5493 5495 5496 5497 5499 5500 5501 5502 5502 5503 5503
Wind_Speed
37 36 36 36 37 37 38 39 40 40 39 39 38 37 37 37 37 37 37 37 37 36 36 36 37 36 36 36 36 36 36 36 36 36 36 36 36 35 35 35 36 36 36
37 37 37 37 37 38 39 39 40 41 40 39 39 39 38 37 37 37 37 37 37 37 37 37 38 37 37 37 37 37 37 37 38 38 37 38 37 37 37 37 37 38 38
37 37 37 37 38 39 39 40 40 41 41 40 40 40 39 38 37 37 37 37 38 37 37 37 38 38 37 38 38 38 38 38 38 38 38 38 38 38 38 39 39 39 40
38 37 37 38 38 39 39 40 40 41 41 41 41 41 40 39 37 36 37 38 38 37 38 38 38 38 39 39 39 39 39 38 39 39 39 39 39 39 39 39 40 41 41
39 38 38 39 39 39 39 39 40 41 41 41 42 41 41 40 39 38 38 38 38 38 38 38 38 39 39 39 39 39 40 40 40 40 40 40 41 40 40 40 40 41 41
39 39 39 39 39 39 39 39 40 41 41 41 42 42 42 42 41 40 40 39 39 39 39 39 39 39 39 39 40 40 40 40 41 41 42 41 41 41 42 41 41 42 42
39 39 39 40 39 39 39 40 40 41 41 42 42 42 43 42 42 42 42 41 40 40 40 40 40 40 40 40 41 41 41 42 42 42 42 43 43 43 43 43 43 43 43
39 40 40 41 41 40 41 41 41 41 42 42 43 42 42 43 43 43 43 43 42 41 41 42 41 41 41 41 42 42 43 43 44 43 44 44 44 44 45 45 44 44 44
39 40 41 41 41 41 42 41 42 42 43 43 44 43 43 43 43 43 43 43 43 43 43 43 42 42 42 43 43 43 44 44 44 44 44 45 45 44 45 45 45 45 45
39 40 41 42 42 43 43 43 43 43 43 44 44 44 44 44 44 44 44 44 44 44 43 43 43 43 43 44 44 44 45 45 44 44 45 45 45 44 45 45 45 45 45
38 39 40 42 43 44 44 45 44 45 45 45 45 45 45 45 45 44 44 44 43 43 43 44 44 44 44 44 44 44 44 44 44 44 44 44 44 44 44 45 45 45 45
38 39 40 42 42 43 43 44 45 46 45 46 46 46 46 45 45 45 44 43 43 42 42 42 43 43 44 44 45 45 45 45 45 44 44 44 44 45 45 46 46 45 45
38 39 40 41 42 42 42 43 44 45 45 46 46 47 47 46 45 45 44 44 44 44 43 43 42 43 43 44 45 45 45 45 44 44 44 44 44 44 44 44 44 44 44
38 39 40 40 41 42 42 43 44 45 45 46 46 47 47 47 46 45 45 45 45 45 44 44 44 43 43 44 44 45 45 44 44 43 43 43 43 43 43 43 43 43 43
36 37 39 39 39 40 42 43 44 45 45 45 45 46 46 47 47 46 45 45 46 46 46 46 45 45 45 45 45 45 45 45 44 44 43 43 43 43 43 43 43 43 43
36 37 37 38 38 39 40 41 42 43 43 43 44 45 45 46 46 46 46 45 45 46 46 46 46 46 46 46 46 46 46 45 45 44 44 44 44 44 44 44 44 44 44
37 37 38 38 38 38 39 40 41 41 41 41 42 42 43 44 44 45 46 45 45 45 46 47 47 47 46 46 46 46 46 46 46 46 45 45 45 45 45 45 45 45 45
36 37 37 38 38 38 38 38 39 40 40 39 39 40 41 42 43 44 45 45 45 45 46 46 46 46 47 47 47 47 47 47 46 46 46 45 45 45 45 46 46 46 46
36 36 37 37 37 38 38 38 38 38 38 39 39 39 40 41 41 43 44 45 45 45 45 46 46 46 46 46 46 46 46 46 46 45 46 45 45 45 45 45 45 45 45
35 36 36 37 38 38 38 38 38 38 38 39 39 39 39 39 40 41 42 43 43 43 44 44 44 44 45 45 45 45 45 45 45 45 45 45 45 45 44 44 44 44 44
33 35 35 36 37 38 38 38 38 39 39 39 39 38 38 38 39 39 40 40 41 41 42 42 42 42 42 43 44 44 43 43 43 43 44 44 43 43 43 42 42 42 42
31 32 33 35 36 37 37 38 39 39 40 40 39 39 38 38 38 38 39 39 39 39 39 40 40 41 41 41 41 42 42 42 42 42 41 41 41 40 40 40 40 40 40
29 30 31 32 34 36 37 37 38 39 40 40 40 40 40 39 39 40 39 39 38 37 37 38 38 38 39 39 40 40 40 40 39 39 38 38 38 39 39 39 38 38 38
28 29 29 30 31 32 34 35 36 37 38 39 40 40 41 41 40 39 39 38 37 36 36 35 35 36 36 36 37 37 36 36 37 37 37 37 37 37 38 38 38 37 37
27 27 28 28 29 30 32 33 34 35 36 36 37 37 38 38 38 38 38 37 36 35 35 34 34 34 34 34 34 35 35 35 35 35 35 35 36 36 36 37 36 36 35
25 26 26 26 27 28 30 32 33 33 34 34 34 34 35 35 36 36 36 36 35 35 34 33 33 32 33 33 33 34 34 34 34 34 34 35 35 35 35 35 35 35 35
Wind_Direction
255 255 254 253 252 250 249 247 247 246 247 246 246 247 248 248 248 247 248 248 248 249 250 250 249 247 247 248 248 249 250 250 251 252 253 253 254 255 255 256 256 256 256
255 255 254 253 252 251 249 249 247 246 246 246 245 246 247 248 247 246 247 248 249 249 250 250 249 248 248 248 249 250 251 251 252 253 253 254 255 256 256 256 257 257 257
255 255 253 252 251 251 250 249 248 246 246 245 245 246 248 249 249 247 248 248 249 249 250 250 249 248 248 248 249 250 251 252 253 253 255 256 257 258 257 258 258 259 259
255 254 252 251 251 251 250 249 248 247 246 245 245 246 248 249 249 248 248 248 249 250 250 250 250 249 249 249 250 251 252 253 254 255 256 257 258 259 260 260 260 260 260
254 254 252 251 251 250 250 250 248 246 245 245 245 246 247 248 247 248 248 248 248 249 250 250 251 250 250 250 251 252 253 254 256 256 257 259 260 260 260 261 262 262 262
254 254 253 252 251 251 250 250 248 246 245 245 245 246 247 248 248 248 249 250 249 250 251 251 251 250 250 251 252 254 255 256 257 257 258 260 260 260 261 261 262 262 263
255 254 253 251 250 250 249 249 248 246 245 245 245 246 247 247 247 248 249 250 250 250 251 252 251 251 251 252 254 255 256 257 258 259 260 260 261 262 262 262 262 263 264
254 253 251 250 250 249 248 248 247 246 246 246 246 246 246 247 247 248 249 249 250 250 251 251 252 252 252 254 255 256 257 258 258 260 262 262 262 262 262 262 263 264 264
254 252 250 250 249 248 247 247 246 246 246 247 247 247 247 247 247 248 249 249 250 250 251 252 252 254 254 256 257 258 259 260 261 261 262 261 262 262 262 262 263 265 265
254 253 251 249 248 248 247 246 245 246 247 247 247 247 248 248 248 249 249 250 251 251 252 252 253 254 255 257 258 260 260 261 261 261 263 263 263 262 262 262 263 264 265
255 254 252 250 248 247 247 245 245 245 246 246 246 247 247 248 249 249 249 250 251 251 253 254 254 255 256 257 258 259 259 260 260 261 262 263 263 262 262 262 264 265 265
256 254 253 251 249 248 247 246 246 245 245 246 246 247 247 247 248 248 249 250 251 252 253 253 254 256 257 258 259 260 260 261 261 261 262 263 264 264 264 264 265 266 266
255 253 252 250 249 248 247 246 246 246 246 246 246 246 247 247 248 249 250 251 252 253 254 254 256 257 258 260 260 261 261 261 261 262 262 263 264 264 265 265 266 266 266
254 252 250 249 249 248 247 246 246 247 247 247 247 247 248 248 249 250 252 252 252 253 254 255 257 258 259 259 260 260 260 261 262 263 263 263 264 264 265 265 266 266 266
255 252 250 248 247 247 246 246 246 246 248 248 248 249 249 249 249 250 252 252 253 253 254 256 257 258 259 259 259 260 260 260 261 262 263 263 263 264 264 265 265 265 266
255 253 252 250 249 248 247 247 247 246 247 248 249 248 249 250 250 250 251 252 253 254 254 255 257 258 259 259 259 260 259 260 261 262 263 263 263 263 264 264 265 265 266
255 253 252 251 250 249 247 247 247 247 247 247 247 247 247 249 250 250 251 252 252 253 254 256 257 258 259 259 260 259 259 259 260 262 262 263 263 263 263 264 265 265 268
255 254 252 252 251 249 247 247 247 247 247 247 246 246 248 249 250 250 250 251 252 254 255 256 256 257 257 258 259 259 259 259 260 262 262 262 262 263 264 264 264 266 268
257 256 253 252 251 248 248 248 247 248 247 246 247 247 248 249 250 250 250 252 253 254 255 256 256 256 257 258 258 259 259 259 260 261 262 262 262 263 264 264 265 266 267
257 256 254 253 251 249 248 247 247 247 246 246 246 247 247 249 250 250 251 252 253 255 256 257 257 256 257 257 258 259 260 260 260 261 261 263 263 263 263 264 266 267 266
260 256 255 253 252 250 248 247 246 246 245 245 246 247 248 249 250 250 252 253 255 257 257 257 257 257 257 257 258 259 259 260 260 261 261 262 262 263 263 264 265 265 265
262 259 257 254 252 249 248 247 247 247 246 246 247 248 250 251 252 252 253 255 257 257 257 257 257 257 257 257 258 258 258 259 259 259 259 259 260 261 261 262 264 265 265
265 262 260 257 254 251 249 248 248 248 247 247 248 249 251 252 252 253 254 256 257 256 256 257 257 258 258 258 257 257 257 257 257 258 258 258 259 260 260 261 263 265 266
266 262 260 258 256 253 250 248 248 248 248 248 249 250 251 252 253 254 254 254 254 254 255 256 257 257 258 258 257 256 256 256 256 256 257 258 258 259 260 261 263 264 265
267 264 261 259 257 254 251 249 248 248 248 249 250 250 251 251 252 253 253 253 252 252 253 254 255 256 257 257 257 256 256 256 256 256 256 257 258 259 260 261 262 263 264
268 265 263 260 256 253 251 249 249 248 248 249 249 250 250 250 250 251 252 252 251 251 252 253 254 256 256 255 255 255 255 255 255 255 256 257 257 258 259 260 261 263 264